N3KJE Weather Reports


time (UTC)temp
C
wind
direction
speed
KPH
gust
KPH
rain 1hr
cm
rain 24hr
cm
rain mn
cm
humidity
%
barometer
mb
20260505003504 17 126 3.2 8.0 0.00 0.00 0.00 72 1011.2
20260505003005 17 102 1.6 4.8 0.00 0.00 0.00 71 1011.3
20260505002505 17 160 3.2 8.0 0.00 0.00 0.00 71 1011.3
20260505002004 17 175 3.2 8.0 0.00 0.00 0.00 70 1011.3
20260505001005 18 165 1.6 8.0 0.00 0.00 0.00 69 1011.2
20260505000505 18 178 4.8 14.5 0.00 0.00 0.00 69 1011.1
20260505000004 18 175 4.8 8.0 0.00 0.00 0.00 69 1011.1
20260504234504 18 16 1.6 8.0 0.00 0.00 0.00 66 1010.9
20260504234005 18 121 3.2 8.0 0.00 0.00 0.00 65 1010.9
20260504232505 19 198 3.2 8.0 0.00 0.00 0.00 63 1010.7
20260504231004 20 135 4.8 11.3 0.00 0.00 0.00 61 1010.6
20260504223504 21 169 3.2 19.3 0.00 0.00 0.00 56 1010.7
20260504223004 21 136 4.8 16.1 0.00 0.00 0.00 54 1010.6
20260504222504 21 150 4.8 19.3 0.00 0.00 0.00 53 1010.6
20260504222004 21 187 4.8 19.3 0.00 0.00 0.00 52 1010.6
20260504221504 22 152 8.0 14.5 0.00 0.00 0.00 51 1010.6
20260504220504 23 157 8.0 19.3 0.00 0.00 0.00 45 1010.5
20260504215004 23 119 3.2 16.1 0.00 0.00 0.00 36 1010.6
20260504213505 24 3 4.8 12.9 0.00 0.00 0.00 36 1010.6
20260504213005 24 223 6.4 16.1 0.00 0.00 0.00 34 1010.6
20260504212004 24 231 6.4 16.1 0.00 0.00 0.00 33 1010.6
20260504210504 24 255 3.2 14.5 0.00 0.00 0.00 33 1010.5
20260504205504 24 59 3.2 16.1 0.00 0.00 0.00 33 1010.6
20260504203504 24 310 4.8 19.3 0.00 0.00 0.00 35 1010.7
20260504202504 24 188 4.8 19.3 0.00 0.00 0.00 35 1010.6
20260504201504 25 254 6.4 19.3 0.00 0.00 0.00 35 1010.7
20260504201004 25 236 3.2 12.9 0.00 0.00 0.00 35 1010.8
20260504200504 25 215 4.8 12.9 0.00 0.00 0.00 34 1010.7
20260504200005 24 293 3.2 8.0 0.00 0.00 0.00 34 1010.8
20260504195504 24 275 3.2 12.9 0.00 0.00 0.00 33 1010.9
20260504195005 24 212 4.8 16.1 0.00 0.00 0.00 34 1010.9
20260504194505 24 249 4.8 11.3 0.00 0.00 0.00 33 1011.0
20260504194004 24 249 4.8 14.5 0.00 0.00 0.00 33 1011.0
20260504193504 24 260 4.8 12.9 0.00 0.00 0.00 33 1011.1
20260504192505 25 166 4.8 14.5 0.00 0.00 0.00 34 1011.1
20260504192004 24 236 4.8 14.5 0.00 0.00 0.00 33 1011.2
20260504191005 24 14 4.8 9.7 0.00 0.00 0.00 34 1011.3
20260504190504 24 100 4.8 14.5 0.00 0.00 0.00 33 1011.4
20260504185505 24 221 3.2 11.3 0.00 0.00 0.00 36 1011.5
20260504184504 24 188 8.0 19.3 0.00 0.00 0.00 32 1011.6
20260504184004 24 225 4.8 16.1 0.00 0.00 0.00 34 1011.6
20260504183504 24 264 4.8 11.3 0.00 0.00 0.00 36 1011.6
20260504182505 23 297 8.0 16.1 0.00 0.00 0.00 34 1011.8
20260504181504 23 260 3.2 11.3 0.00 0.00 0.00 35 1011.9
20260504181005 23 308 6.4 14.5 0.00 0.00 0.00 35 1011.9
20260504180505 23 241 6.4 12.9 0.00 0.00 0.00 33 1012.0
20260504180004 23 273 6.4 24.1 0.00 0.00 0.00 34 1012.0
20260504175504 23 271 4.8 12.9 0.00 0.00 0.00 33 1012.1
20260504175004 23 218 6.4 16.1 0.00 0.00 0.00 33 1012.2
20260504173005 23 282 4.8 14.5 0.00 0.00 0.00 34 1012.4
20260504172004 23 292 6.4 12.9 0.00 0.00 0.00 34 1012.5
20260504171504 23 355 4.8 14.5 0.00 0.00 0.00 34 1012.6
20260504170504 23 215 4.8 12.9 0.00 0.00 0.00 38 1012.7
20260504140505 18 181 3.2 8.0 0.00 0.00 0.00 55 1014.1
20260504130504 17 148 3.2 8.0 0.00 0.00 0.00 60 1014.9
20260504110505 11 136 1.6 4.8 0.00 0.00 0.00 79 1015.6
20260504081004 11 174 3.2 4.8 0.00 0.00 0.00 77 1015.9
20260504080504 11 172 3.2 8.0 0.00 0.00 0.00 77 1015.8
20260504050505 10 175 3.2 4.8 0.00 0.00 0.00 62 1015.8
20260504045004 9 147 1.6 4.8 0.00 0.00 0.00 64 1015.7
20260504044504 9 109 1.6 3.2 0.00 0.00 0.00 64 1015.7
20260504044005 9 109 1.6 3.2 0.00 0.00 0.00 64 1015.7
20260504043004 8 144 0.0 3.2 0.00 0.00 0.00 65 1015.7
20260504042504 8 132 0.0 3.2 0.00 0.00 0.00 66 1015.6
20260504042004 8 138 0.0 3.2 0.00 0.00 0.00 66 1015.6
20260504041504 8 138 0.0 3.2 0.00 0.00 0.00 66 1015.5
20260504041005 8 138 0.0 3.2 0.00 0.00 0.00 66 1015.5
20260504040004 8 138 0.0 3.2 0.00 0.00 0.00 68 1015.3
20260504035505 8 151 0.0 1.6 0.00 0.00 0.00 68 1015.3
20260504035005 8 155 0.0 1.6 0.00 0.00 0.00 67 1015.3
20260504034504 8 155 1.6 3.2 0.00 0.00 0.00 68 1015.2
20260504033004 8 194 0.0 1.6 0.00 0.00 0.00 68 1015.1
20260504032505 8 194 0.0 1.6 0.00 0.00 0.00 68 1015.2
20260504031004 8 275 0.0 1.6 0.00 0.00 0.00 67 1015.1
20260504030005 8 275 0.0 1.6 0.00 0.00 0.00 67 1015.1
20260504025505 8 275 0.0 1.6 0.00 0.00 0.00 66 1015.1
20260504025005 8 275 0.0 1.6 0.00 0.00 0.00 67 1015.1
20260504024504 8 275 0.0 3.2 0.00 0.00 0.00 67 1015.1
20260504024004 8 275 0.0 1.6 0.00 0.00 0.00 67 1015.1
20260504023504 8 275 1.6 3.2 0.00 0.00 0.00 68 1015.1
20260504020504 8 275 0.0 0.0 0.00 0.00 0.00 68 1015.1
20260504020005 8 275 0.0 0.0 0.00 0.00 0.00 68 1014.9
20260504015505 8 275 0.0 0.0 0.00 0.00 0.00 70 1014.9
20260504015005 8 275 0.0 0.0 0.00 0.00 0.00 67 1014.9
20260504014504 8 275 0.0 0.0 0.00 0.00 0.00 67 1014.9
20260504005504 10 275 0.0 1.6 0.00 0.00 0.00 62 1014.5